Location: Whitehorse
(60.7170°N, 135.0500°W)
Time: 18:36:18
(UTC-08:00)

SL-16 R/B - Visible Passes

Search period start: 20 December 2014 00:00
Search period end: 30 December 2014 00:00
Orbit: 842 x 848 km, 71.0° (Epoch: 20 December)

Date Brightness Start Highest point End Pass type
(mag) Time Alt. Az. Time Alt. Az. Time Alt. Az.
20 Dec 4.9 07:48:31 10° SSE 07:52:41 22° ESE 07:56:52 10° NE visible
20 Dec 4.1 18:15:14 10° NW 18:20:14 33° WSW 18:25:13 10° S visible
21 Dec 4.9 07:34:37 10° SSE 07:38:44 21° ESE 07:42:51 10° NE visible
21 Dec 4.1 18:01:15 10° NW 18:06:17 34° WSW 18:11:17 10° S visible
22 Dec 5.0 07:20:44 10° SSE 07:24:47 21° ESE 07:28:51 10° ENE visible
22 Dec 2.6 09:02:26 10° SSW 09:08:04 71° SE 09:13:44 10° NE visible
22 Dec 4.1 17:47:15 10° NW 17:52:19 34° WSW 17:57:21 10° S visible
23 Dec 5.0 07:06:50 10° SSE 07:10:50 20° ESE 07:14:50 10° ENE visible
23 Dec 2.6 08:48:28 10° SSW 08:54:06 70° SE 08:59:45 10° NE visible
23 Dec 4.0 17:33:16 10° NW 17:38:21 35° WSW 17:43:25 10° S visible
24 Dec 4.9 06:52:57 10° SE 06:56:53 20° ESE 07:00:49 10° ENE visible
24 Dec 2.7 08:34:30 10° SSW 08:40:08 69° SE 08:45:46 10° NE visible
24 Dec 4.0 17:19:17 10° NW 17:24:24 36° WSW 17:29:29 10° S visible
25 Dec 4.9 06:39:04 10° SE 06:42:56 19° E 06:46:49 10° ENE visible
25 Dec 2.7 08:20:32 10° SSW 08:26:09 67° ESE 08:31:47 10° NE visible
25 Dec 4.0 17:05:17 10° NW 17:10:26 37° WSW 17:15:33 10° S visible
26 Dec 4.9 06:25:10 10° SE 06:28:59 19° E 06:32:48 10° ENE visible
26 Dec 2.7 08:06:34 10° SSW 08:12:11 66° ESE 08:17:49 10° NE visible
26 Dec 4.0 16:51:18 10° NW 16:56:28 37° WSW 17:01:36 10° S visible
27 Dec 4.9 06:11:17 10° SE 06:15:02 18° E 06:18:46 10° ENE visible
27 Dec 2.7 07:52:36 10° SSW 07:58:12 65° ESE 08:03:49 10° NE visible
28 Dec 4.9 05:57:24 10° SE 06:01:04 18° E 06:04:45 10° ENE visible
28 Dec 2.7 07:38:38 10° SSW 07:44:14 63° ESE 07:49:50 10° NE visible
29 Dec 4.9 05:43:31 10° SE 05:47:07 18° E 05:50:43 10° ENE visible
29 Dec 2.7 07:24:40 10° SSW 07:30:15 62° ESE 07:35:51 10° NE visible
29 Dec 2.4 09:09:07 10° WSW 09:14:38 50° NW 09:20:10 10° NE visible
